Joliet, IL

4:21 AM CDT on September 21, 2017 (GMT -0500)
Joliet Regional

Weather History for KJOT - July, 2013

Change the Weather History Date:

Monday, July 15, 2013

  Actual Average (KARR) Record (KARR)
Temperature  
Mean Temperature 79 °F -  
Max Temperature 90 °F 81 °F 93 °F (2006)
Min Temperature 69 °F 60 °F 52 °F (2014)
Cooling Degree Days 14    
Growing Degree Days 29 (Base 50)    
Moisture  
Dew Point 71 °F    
Average Humidity 73    
Maximum Humidity 91    
Minimum Humidity 52    
Precipitation  
Precipitation 0.00 in - - ()
Sea Level Pressure  
Sea Level Pressure 30.25 in    
Wind  
Wind Speed 1 mph (East)    
Max Wind Speed 7 mph    
Max Gust Speed -    
Visibility 10 miles    
Events Rain    
Averages and records for this station are not official NWS values.
T = Trace of Precipitation, MM = Missing Value Source: NWS Daily Summary

Daily Weather History Graph

Daily Weather History Graph

Search for Another Location

Airport or City:

Trip Planner

Search our weather history database for the weather conditions in past years. The results will help you decide how hot, cold, wet, or windy it might be!

Date:

Astronomy

Jul. 15, 2013 Rise Set
Actual Time 5:32 AM CDT 8:24 PM CDT
Civil Twilight 4:59 AM CDT 8:57 PM CDT
Nautical Twilight 4:17 AM CDT 9:39 PM CDT
Astronomical Twilight 3:29 AM CDT 10:27 PM CDT
Moon 12:57 PM CDT (7/15) No Moon Set
Length of Visible Light 15h 58m
Length of Day
14h 52m
Waxing Crescent, 45% of the Moon is Illuminated
Jul 15
Waxing Crescent
Jul 15
First Quarter
Jul 22
Full
Jul 29
Last Quarter
Aug 6
New

Hourly Weather History & Observations

Time (CDT) Temp. Heat Index Dew Point Humidity Pressure Visibility Wind Dir Wind Speed Gust Speed Precip Events Conditions
12:15 AM 74.5 °F - 66.9 °F 77% 30.22 in 10.0 mi Calm Calm - N/A   Clear
12:35 AM 74.1 °F - 66.9 °F 78% 30.23 in 10.0 mi NE 3.5 mph - N/A   Clear
12:55 AM 73.8 °F - 66.6 °F 78% 30.22 in 10.0 mi Calm Calm - N/A   Clear
1:15 AM 73.6 °F - 66.4 °F 78% 30.22 in 10.0 mi Calm Calm - N/A   Clear
1:35 AM 73.8 °F - 66.4 °F 78% 30.23 in 10.0 mi Calm Calm - N/A   Clear
1:55 AM 72.7 °F - 66.4 °F 81% 30.23 in 10.0 mi Calm Calm - N/A   Clear
2:15 AM 72.5 °F - 66.7 °F 82% 30.23 in 10.0 mi Calm Calm - N/A   Clear
2:35 AM 72.0 °F - 66.7 °F 84% 30.23 in 10.0 mi Calm Calm - N/A   Clear
2:55 AM 72.0 °F - 67.1 °F 85% 30.23 in 10.0 mi Calm Calm - N/A   Clear
3:15 AM 71.6 °F - 66.9 °F 85% 30.24 in 10.0 mi Calm Calm - N/A   Clear
3:35 AM 71.2 °F - 66.9 °F 86% 30.24 in 10.0 mi Calm Calm - N/A   Clear
3:55 AM 69.8 °F - 66.4 °F 89% 30.24 in 7.0 mi Calm Calm - N/A   Clear
4:15 AM 70.2 °F - 67.3 °F 91% 30.23 in 10.0 mi Calm Calm - N/A   Clear
4:35 AM 70.9 °F - 67.3 °F 88% 30.24 in 7.0 mi North 3.5 mph - N/A   Clear
4:55 AM 70.9 °F - 67.3 °F 88% 30.24 in 10.0 mi Calm Calm - N/A   Clear
5:15 AM 70.7 °F - 67.5 °F 89% 30.24 in 7.0 mi North 3.5 mph - N/A   Clear
5:35 AM 70.3 °F - 67.3 °F 90% 30.25 in 7.0 mi Calm Calm - N/A   Clear
5:55 AM 70.7 °F - 67.6 °F 90% 30.25 in 7.0 mi Calm Calm - N/A   Clear
6:15 AM 71.8 °F - 68.2 °F 88% 30.26 in 7.0 mi Calm Calm - N/A   Clear
6:35 AM 73.4 °F - 68.9 °F 86% 30.26 in 7.0 mi Calm Calm - N/A   Clear
6:55 AM 74.7 °F - 69.3 °F 83% 30.26 in 10.0 mi Calm Calm - N/A   Clear
7:15 AM 77.0 °F - 70.3 °F 80% 30.27 in 10.0 mi Calm Calm - N/A   Clear
7:35 AM 79.0 °F - 71.2 °F 77% 30.27 in 10.0 mi East 3.5 mph - N/A   Clear
7:55 AM 80.1 °F 83.8 °F 71.8 °F 76% 30.27 in 10.0 mi ESE 3.5 mph - N/A   Clear
8:15 AM 80.4 °F 84.2 °F 71.4 °F 74% 30.27 in 10.0 mi Calm Calm - N/A   Clear
8:35 AM 82.0 °F 86.5 °F 71.4 °F 70% 30.28 in 10.0 mi Calm Calm - N/A   Clear
8:55 AM 83.1 °F 88.1 °F 71.6 °F 68% 30.28 in 10.0 mi SSE 3.5 mph - N/A   Clear
9:15 AM 83.7 °F 89.4 °F 72.3 °F 69% 30.27 in 10.0 mi Calm Calm - N/A   Clear
9:35 AM 85.1 °F 90.8 °F 71.8 °F 64% 30.27 in 10.0 mi Calm Calm - N/A   Clear
9:55 AM 86.2 °F 91.4 °F 71.1 °F 60% 30.27 in 10.0 mi Calm Calm - N/A   Clear
10:15 AM 86.9 °F 92.9 °F 71.4 °F 60% 30.28 in 10.0 mi Calm Calm - N/A   Clear
10:35 AM 87.1 °F 92.4 °F 70.7 °F 58% 30.28 in 10.0 mi ESE 3.5 mph - N/A   Clear
10:55 AM 86.5 °F 92.5 °F 71.6 °F 61% 30.27 in 10.0 mi South 4.6 mph - N/A   Clear
11:15 AM 86.0 °F 91.5 °F 71.1 °F 61% 30.27 in 10.0 mi Calm Calm - N/A   Scattered Clouds
11:35 AM 85.6 °F 90.8 °F 70.9 °F 61% 30.27 in 10.0 mi South 3.5 mph - N/A   Scattered Clouds
11:55 AM 86.4 °F 91.4 °F 70.5 °F 59% 30.27 in 10.0 mi SSW 4.6 mph - N/A   Scattered Clouds
12:15 PM 85.8 °F 91.1 °F 70.9 °F 61% 30.27 in 10.0 mi SW 4.6 mph - N/A   Scattered Clouds
12:35 PM 83.8 °F 89.8 °F 72.5 °F 69% 30.27 in 7.0 mi Calm Calm - N/A Rain Light Rain
12:55 PM 84.6 °F 91.4 °F 73.6 °F 69% 30.27 in 10.0 mi Calm Calm - N/A   Scattered Clouds
1:15 PM 85.1 °F 91.8 °F 73.0 °F 67% 30.27 in 10.0 mi Calm Calm - N/A   Scattered Clouds
1:35 PM 85.1 °F 92.9 °F 74.1 °F 70% 30.26 in 10.0 mi West 3.5 mph - N/A   Clear
2:15 PM 86.5 °F 94.6 °F 73.8 °F 66% 30.25 in 10.0 mi Calm Calm - N/A   Clear
2:35 PM 87.1 °F 94.9 °F 73.4 °F 64% 30.25 in 10.0 mi Calm Calm - N/A   Clear
2:55 PM 88.0 °F 95.6 °F 73.0 °F 61% 30.24 in 10.0 mi SSE 4.6 mph - N/A   Scattered Clouds
3:15 PM 88.7 °F 94.8 °F 71.2 °F 56% 30.24 in 10.0 mi South 3.5 mph - N/A   Scattered Clouds
3:35 PM 89.1 °F 96.0 °F 71.8 °F 57% 30.24 in 10.0 mi SSE 5.8 mph - N/A   Scattered Clouds
3:55 PM 87.8 °F 94.3 °F 71.8 °F 59% 30.24 in 10.0 mi ESE 5.8 mph - N/A   Scattered Clouds
4:15 PM 88.9 °F 93.4 °F 69.3 °F 52% 30.23 in 10.0 mi Calm Calm - N/A   Clear
4:35 PM 88.9 °F 93.8 °F 69.6 °F 53% 30.23 in 10.0 mi Calm Calm - N/A   Scattered Clouds
4:55 PM 84.6 °F 90.3 °F 72.0 °F 66% 30.23 in 10.0 mi NNE 6.9 mph - N/A   Scattered Clouds
5:15 PM 84.2 °F 90.6 °F 73.2 °F 69% 30.23 in 10.0 mi Calm Calm - N/A   Scattered Clouds
5:35 PM 84.9 °F 91.8 °F 73.4 °F 68% 30.22 in 10.0 mi NNE 6.9 mph - N/A   Scattered Clouds
5:55 PM 85.1 °F 91.8 °F 73.2 °F 67% 30.22 in 10.0 mi NE 3.5 mph - N/A   Scattered Clouds
6:15 PM 84.2 °F 90.9 °F 73.4 °F 70% 30.22 in 10.0 mi NNE 3.5 mph - N/A   Scattered Clouds
6:35 PM 84.0 °F 90.2 °F 73.0 °F 69% 30.22 in 10.0 mi NNE 3.5 mph - N/A   Mostly Cloudy
6:55 PM 84.6 °F 91.0 °F 73.0 °F 68% 30.22 in 10.0 mi NE 6.9 mph - N/A   Scattered Clouds
7:15 PM 84.6 °F 91.0 °F 72.9 °F 68% 30.23 in 10.0 mi Calm Calm - N/A   Scattered Clouds
7:35 PM 84.2 °F 90.6 °F 73.2 °F 69% 30.23 in 10.0 mi Calm Calm - N/A   Mostly Cloudy
7:55 PM 83.3 °F 89.3 °F 72.9 °F 71% 30.23 in 10.0 mi ENE 3.5 mph - N/A   Mostly Cloudy
8:15 PM 82.9 °F 88.5 °F 72.7 °F 71% 30.23 in 10.0 mi Calm Calm - N/A   Mostly Cloudy
8:35 PM 82.2 °F 87.3 °F 72.5 °F 72% 30.24 in 10.0 mi Calm Calm - N/A   Mostly Cloudy
8:55 PM 81.5 °F 86.5 °F 72.9 °F 75% 30.24 in 10.0 mi Calm Calm - N/A   Mostly Cloudy
9:15 PM 81.1 °F 85.6 °F 72.1 °F 74% 30.25 in 10.0 mi Calm Calm - N/A   Scattered Clouds
9:35 PM 80.4 °F 84.2 °F 71.6 °F 74% 30.26 in 10.0 mi Calm Calm - N/A   Scattered Clouds
10:15 PM 77.9 °F - 71.4 °F 80% 30.27 in 10.0 mi Calm Calm - N/A   Clear
10:35 PM 76.3 °F - 71.8 °F 86% 30.27 in 10.0 mi Calm Calm - N/A   Clear
10:55 PM 76.5 °F - 71.8 °F 85% 30.27 in 10.0 mi SE 3.5 mph - N/A   Clear
11:15 PM 78.3 °F - 71.2 °F 79% 30.27 in 10.0 mi Calm Calm - N/A   Clear
11:35 PM 77.7 °F - 71.6 °F 81% 30.28 in 10.0 mi Calm Calm - N/A   Clear
11:55 PM 76.8 °F - 71.1 °F 82% 30.27 in 10.0 mi Calm Calm - N/A   Clear